カタログに戻る

FENGYUN 1C DEB

運用中PO
NORAD 30633·DEBRIS·🇨🇳 China

打ち上げ May 10, 1999 から Taiyuan Satellite Launch Center

Loading…

次のパス (今後24時間)

TLE

最新Source: Space-Track

元期: Sep 14, 2026, 01:21 UTC

1 30633U 99025ANQ 26257.05687133  .00001063  00000-0  63530-3 0  9995
2 30633  98.3975 107.1165 0128437 199.2832 314.8819 14.05067429997577

AllMySatでFENGYUN 1C DEBをリアルタイム追跡

Download on the App Store